Location: Boursonne
(49.2024°N, 3.0468°E)
Time: 00:30:07
(UTC+00:00)

MetOp-A - Pass Details

Date: 03 March 2021
Orbit: 819 x 821 km, 98.5° (Epoch: 14 April)

Event Time Altitude Azimuth Distance (km) Brightness Sun altitude
Exits shadow 19:27:04 - 168° (SSE) 2,979 6.8 -19.1°
Reaches altitude 10° 19:28:29 10° 169° (SSE) 2,414 6.3 -19.3°
Maximum altitude 19:33:51 79° 255° (WSW) 842 4.2 -20.2°
Drops below altitude 10° 19:39:15 10° 343° (NNW) 2,431 7.0 -21.0°
Sets 19:41:37 0° 345° (NNW) 3,368 7.7 -21.4°
